TimeEDT,TemperatureF,Dew PointF,Humidity,Sea Level PressureIn,VisibilityMPH,Wind Direction,Wind SpeedMPH,Gust SpeedMPH,PrecipitationIn,Events,Conditions,WindDirDegrees,DateUTC
12:21 AM,32.0,32.0,100,29.70,0.5,Calm,Calm,-,N/A,Fog,Fog,0,2013-03-26 04:21:00
12:41 AM,32.0,32.0,100,29.70,0.2,Calm,Calm,-,N/A,Fog,Fog,0,2013-03-26 04:41:00
12:49 AM,32.0,32.0,100,29.70,0.5,Calm,Calm,-,N/A,Fog,Fog,0,2013-03-26 04:49:00
12:53 AM,32.0,32.0,100,29.75,0.5,Calm,Calm,-,N/A,Fog,Fog,0,2013-03-26 04:53:00
12:57 AM,32.0,32.0,100,29.70,0.8,Calm,Calm,-,N/A,,Overcast,0,2013-03-26 04:57:00
1:00 AM,32.0,32.0,100,29.71,0.8,Calm,Calm,-,N/A,,Overcast,0,2013-03-26 05:00:00
1:07 AM,32.0,32.0,100,29.71,1.5,Calm,Calm,-,N/A,,Overcast,0,2013-03-26 05:07:00
1:15 AM,33.8,33.8,100,29.71,1.2,Calm,Calm,-,N/A,,Overcast,0,2013-03-26 05:15:00
1:44 AM,32.0,32.0,100,29.72,2.0,West,3.5,-,0.00,Snow,Light Snow,270,2013-03-26 05:44:00
1:53 AM,32.0,32.0,100,29.77,2.0,West,4.6,-,0.00,Snow,Light Snow,270,2013-03-26 05:53:00
2:00 AM,32.0,32.0,100,29.72,1.8,West,4.6,-,0.00,Snow,Light Snow,280,2013-03-26 06:00:00
2:10 AM,32.0,32.0,100,29.72,2.0,WNW,5.8,-,0.00,Snow,Light Snow,290,2013-03-26 06:10:00
2:51 AM,32.0,32.0,100,29.73,3.0,WNW,4.6,-,0.00,Snow,Light Snow,300,2013-03-26 06:51:00
2:53 AM,32.0,32.0,100,29.78,3.0,WNW,4.6,-,0.00,Snow,Light Snow,300,2013-03-26 06:53:00
3:53 AM,32.0,30.9,96,29.78,6.0,West,3.5,-,0.01,,Clear,270,2013-03-26 07:53:00
4:53 AM,32.0,28.9,88,29.79,8.0,Calm,Calm,-,N/A,,Clear,0,2013-03-26 08:53:00
5:53 AM,32.0,30.0,92,29.81,8.0,Calm,Calm,-,N/A,,Overcast,0,2013-03-26 09:53:00
6:53 AM,32.0,30.0,92,29.83,9.0,Calm,Calm,-,N/A,,Overcast,0,2013-03-26 10:53:00
7:53 AM,32.0,28.9,88,29.86,8.0,NW,10.4,-,N/A,,Clear,310,2013-03-26 11:53:00
8:53 AM,34.0,30.0,85,29.88,10.0,NW,9.2,-,N/A,,Clear,320,2013-03-26 12:53:00
9:53 AM,37.0,30.9,79,29.90,10.0,WNW,6.9,-,N/A,,Clear,300,2013-03-26 13:53:00
10:53 AM,39.0,30.0,70,29.91,10.0,NW,9.2,-,N/A,,Partly Cloudy,320,2013-03-26 14:53:00
11:53 AM,41.0,28.0,60,29.91,10.0,NW,12.7,-,N/A,,Partly Cloudy,310,2013-03-26 15:53:00
12:53 PM,44.1,30.0,58,29.91,10.0,WNW,11.5,-,N/A,,Scattered Clouds,300,2013-03-26 16:53:00
1:53 PM,46.0,28.9,51,29.90,10.0,WNW,10.4,-,N/A,,Scattered Clouds,290,2013-03-26 17:53:00
2:53 PM,46.0,25.0,44,29.89,10.0,North,9.2,-,N/A,,Overcast,350,2013-03-26 18:53:00
3:53 PM,46.0,28.9,51,29.89,10.0,NW,17.3,26.5,N/A,,Mostly Cloudy,310,2013-03-26 19:53:00
4:53 PM,45.0,27.0,49,29.91,10.0,NW,13.8,21.9,N/A,,Overcast,310,2013-03-26 20:53:00
5:53 PM,46.0,27.0,47,29.91,10.0,WNW,16.1,-,N/A,,Overcast,290,2013-03-26 21:53:00
6:53 PM,45.0,27.0,49,29.93,10.0,WNW,18.4,-,N/A,,Partly Cloudy,300,2013-03-26 22:53:00
7:53 PM,42.1,27.0,55,29.97,10.0,WNW,12.7,20.7,N/A,,Overcast,300,2013-03-26 23:53:00
8:53 PM,39.9,28.0,63,29.99,10.0,NW,8.1,-,N/A,,Mostly Cloudy,310,2013-03-27 00:53:00
9:53 PM,39.9,28.0,63,30.02,10.0,NW,15.0,-,N/A,,Overcast,310,2013-03-27 01:53:00
10:53 PM,39.0,28.9,67,30.03,10.0,WNW,12.7,-,N/A,,Overcast,290,2013-03-27 02:53:00
11:53 PM,37.9,28.9,70,30.04,10.0,WNW,5.8,-,N/A,,Overcast,290,2013-03-27 03:53:00